Weather History for EDDH - March, 2008

Change the Weather History Date:

Saturday, March 1, 2008

  Actual Average Record
Temperature  
Mean Temperature 44 °F -  
Max Temperature 46 °F 45 °F - ()
Min Temperature 41 °F 33 °F - ()
Degree Days  
Heating Degree Days 22    
Moisture  
Dew Point 39 °F    
Average Humidity 80    
Maximum Humidity 93    
Minimum Humidity 53    
Precipitation  
Precipitation 0.24 in 0.07 in - ()
Sea Level Pressure  
Sea Level Pressure 29.14 in    
Wind  
Wind Speed 19 mph ()    
Max Wind Speed 36 mph    
Max Gust Speed 56 mph    
Visibility 6.4 miles    
Events Rain    
T = Trace of Precipitation, MM = Missing Value Source: Averaged Metar Reports

Daily Weather History Graph

Daily Weather History Graph

Search for Another Location

Airport or City:

Trip Planner

Search our weather history database for the weather conditions in past years. The results will help you decide how hot, cold, wet, or windy it might be!

Date:

Astronomy

Mar. 01, 2008 Rise Set
Actual Time 7:07 AM CET 5:58 PM CET
Civil Twilight 6:32 AM CET 6:33 PM CET
Nautical Twilight 5:51 AM CET 7:13 PM CET
Astronomical Twilight 5:10 AM CET 7:54 PM CET
Moon 4:13 AM CET (3/1) 10:14 AM CET (3/1)
Length of Visible Light 12h 01m
Length of Day
10h 50m
Last Quarter, 37% of the Moon is Illuminated
Mar 1
Last Quarter
Mar 7
New
Mar 14
First Quarter
Mar 21
Full
Mar 29
Last Quarter

Hourly Weather History & Observations

Time (CET) Temp. Windchill Dew Point Humidity Pressure Visibility Wind Dir Wind Speed Gust Speed Precip Events Conditions
12:00 AM 43 °F - 41 °F 91% 29.21 in 4 mi SW 22.4 mph - - Rain Rain
12:20 AM 44.6 °F 39.2 °F 42.8 °F 93% 29.15 in 3.7 mi SSW 10.4 mph 24.2 mph N/A Rain Rain
12:50 AM 46.4 °F 38.1 °F 42.8 °F 87% 29.09 in 5.6 mi SW 24.2 mph 35.7 mph N/A Rain Light Rain
1:00 AM 45 °F - 43 °F 90% 29.12 in 6 mi SW 24.6 mph - - Rain Light Rain
1:20 AM 46.4 °F 38.3 °F 44.6 °F 93% 29.06 in 5.0 mi SW 23.0 mph 35.7 mph N/A Rain Light Rain
1:50 AM 46.4 °F 41.1 °F 44.6 °F 93% 29.03 in 6.2 mi WSW 11.5 mph 26.5 mph N/A Rain Light Rain
2:00 AM 46 °F - 44 °F 90% 29.04 in 6 mi SW 22.4 mph - - Rain Light Rain
2:20 AM 46.4 °F 39.5 °F 44.6 °F 93% 29.00 in 5.0 mi SW 17.3 mph 28.8 mph N/A Rain Rain
2:50 AM 46.4 °F 38.3 °F 42.8 °F 87% 29.00 in 2.8 mi West 23.0 mph 34.5 mph N/A Rain Heavy Rain
3:00 AM 46 °F - 43 °F 84% 29.00 in 3 mi West 24.6 mph - - Rain Heavy Rain
3:20 AM 42.8 °F 34.5 °F 39.2 °F 87% 28.97 in 4.3 mi West 18.4 mph 32.2 mph N/A Rain Rain
3:50 AM 42.8 °F 37.0 °F 39.2 °F 87% 28.94 in 5.6 mi WSW 10.4 mph 23.0 mph N/A Rain Rain
4:20 AM 42.8 °F 36.2 °F 39.2 °F 87% 28.91 in 6.2 mi WSW 12.7 mph - N/A Rain Light Rain
4:50 AM 42.8 °F 36.2 °F 41.0 °F 93% 28.88 in 6.2 mi WSW 12.7 mph - N/A Rain Rain
5:00 AM 42 °F - 40 °F 89% 28.90 in 9 mi WSW 13.4 mph - - Rain Rain
5:20 AM 42.8 °F 37.5 °F 41.0 °F 93% 28.88 in 6.2 mi WSW 9.2 mph 20.7 mph N/A Rain Rain
5:50 AM 42.8 °F 36.6 °F 41.0 °F 93% 28.85 in 6.2 mi WSW 11.5 mph 27.6 mph N/A Rain Light Rain
6:00 AM 43 °F - 40 °F 86% 28.88 in 10 mi West 13.4 mph - - Rain Light Rain
6:20 AM 42.8 °F 35.1 °F 41.0 °F 93% 28.88 in 5.6 mi WSW 16.1 mph - N/A Rain Rain Showers
6:50 AM 44.6 °F 36.9 °F 41.0 °F 87% 28.88 in 6.2 mi West 18.4 mph 34.5 mph N/A Rain Light Rain Showers
7:00 AM 44 °F - 40 °F 83% 28.90 in 9 mi West 20.1 mph - - Rain Light Rain Showers
7:20 AM 42.8 °F 35.4 °F 39.2 °F 87% 28.88 in 6.2 mi West 15.0 mph 35.7 mph N/A Rain Light Rain Showers
7:50 AM 44.6 °F 36.4 °F 39.2 °F 81% 28.91 in 5.6 mi West 20.7 mph 32.2 mph N/A   Mostly Cloudy
8:00 AM 44 °F - 40 °F 79% 28.92 in 6 mi West 22.4 mph - - Rain Light Rain Showers
8:20 AM 44.6 °F 36.6 °F 39.2 °F 81% 28.94 in 6.2 mi West 19.6 mph 34.5 mph N/A Rain Light Rain Showers
8:50 AM 44.6 °F 37.8 °F 39.2 °F 81% 28.94 in 4.3 mi West 15.0 mph 31.1 mph N/A Rain Light Rain Showers
9:00 AM 44 °F - 39 °F 78% 28.95 in 4 mi West 20.1 mph - - Rain Light Rain Showers
9:20 AM 44.6 °F 36.6 °F 41.0 °F 87% 28.94 in 5.6 mi West 19.6 mph 33.4 mph N/A Rain Light Rain Showers
9:50 AM 44.6 °F 38.1 °F 39.2 °F 81% 28.94 in 6.2 mi West 13.8 mph 32.2 mph N/A Rain Light Rain Showers
10:20 AM 44.6 °F 35.7 °F 41.0 °F 87% 28.97 in 6.2 mi West 24.2 mph 38.0 mph N/A Rain Light Rain Showers
10:50 AM 44.6 °F 36.9 °F 41.0 °F 87% 28.97 in 5.6 mi West 18.4 mph 36.8 mph N/A Rain Light Rain Showers
11:00 AM 45 °F - 41 °F 81% 28.98 in 6 mi West 22.4 mph - - Rain Light Rain Showers
11:20 AM 44.6 °F 35.7 °F 41.0 °F 87% 28.97 in 5.0 mi West 24.2 mph 36.8 mph N/A Rain Light Rain Showers
11:50 AM 44.6 °F 36.1 °F 41.0 °F 87% 29.00 in 5.6 mi West 21.9 mph 39.1 mph N/A Rain Light Rain Showers
12:00 PM 45 °F - 42 °F 84% 29.00 in 6 mi West 22.4 mph - - Rain Light Rain Showers
12:20 PM 46.4 °F 38.1 °F 41.0 °F 81% 29.03 in 6.2 mi West 24.2 mph 38.0 mph N/A Rain Light Rain Showers
12:50 PM 46.4 °F 37.7 °F 42.8 °F 87% 29.03 in 6.2 mi West 26.5 mph 42.6 mph N/A   Mostly Cloudy
1:00 PM 46 °F - 42 °F 80% 29.05 in 9 mi WNW 26.8 mph - - Rain Light Rain Showers
1:20 PM 44.6 °F 34.4 °F 41.0 °F 87% 29.06 in 5.6 mi WNW 32.2 mph 55.2 mph N/A Rain Light Rain Showers
1:50 PM 46.4 °F 36.5 °F 39.2 °F 76% 29.12 in 5.0 mi WNW 34.5 mph 56.4 mph N/A   Mostly Cloudy
2:00 PM 46 °F - 39 °F 67% 29.12 in 5 mi WNW 35.8 mph - - Rain Light Rain Showers
2:20 PM 44.6 °F 34.2 °F 37.4 °F 76% 29.15 in 5.0 mi WNW 33.4 mph 50.6 mph N/A Rain Light Rain Showers
2:50 PM 44.6 °F 34.1 °F 35.6 °F 71% 29.21 in 5.0 mi WNW 34.5 mph 50.6 mph N/A   Mostly Cloudy
3:00 PM 45 °F - 35 °F 58% 29.21 in 5 mi WNW 33.6 mph - - Rain Light Rain Showers
3:20 PM 44.6 °F 34.2 °F 35.6 °F 71% 29.24 in 5.0 mi WNW 33.4 mph 49.5 mph N/A Rain Light Rain Showers
3:50 PM 44.6 °F 34.6 °F 33.8 °F 66% 29.27 in 5.0 mi WNW 31.1 mph 46.0 mph N/A   Mostly Cloudy
4:20 PM 42.8 °F 32.9 °F 37.4 °F 81% 29.30 in 5.6 mi WNW 26.5 mph 48.3 mph N/A Rain Light Rain Showers
4:50 PM 44.6 °F 34.7 °F 33.8 °F 66% 29.33 in 6.2 mi WNW 29.9 mph 50.6 mph N/A   Mostly Cloudy
5:00 PM 45 °F - 33 °F 53% 29.33 in 6 mi WNW 31.3 mph - - Rain Light Rain Showers
5:20 PM 44.6 °F 34.9 °F 33.8 °F 66% 29.36 in 6.2 mi WNW 28.8 mph 42.6 mph N/A   Scattered Clouds
5:50 PM 44.6 °F 35.3 °F 35.6 °F 71% 29.36 in 6.2 mi WNW 26.5 mph 40.3 mph N/A   Mostly Cloudy
6:00 PM 45 °F - 36 °F 61% 29.37 in 7 mi WNW 26.8 mph - - Rain Light Rain Showers
6:20 PM 44.6 °F 34.7 °F 35.6 °F 71% 29.39 in 6.2 mi West 29.9 mph 48.3 mph N/A Rain Light Rain Showers
6:50 PM 42.8 °F 33.3 °F 35.6 °F 76% 29.42 in 6.2 mi West 24.2 mph 39.1 mph N/A   Scattered Clouds
7:00 PM 43 °F - 36 °F 67% 29.42 in 12 mi West 24.6 mph - - Rain Light Rain Showers
7:20 PM 44.6 °F 35.5 °F 35.6 °F 71% 29.42 in 6.2 mi West 25.3 mph 43.7 mph N/A   Mostly Cloudy
7:50 PM 42.8 °F 33.1 °F 33.8 °F 70% 29.44 in 6.2 mi West 25.3 mph 42.6 mph N/A   Mostly Cloudy
8:00 PM 43 °F - 34 °F 62% 29.44 in 16 mi West 26.8 mph - -   Mostly Cloudy
8:20 PM 42.8 °F 33.5 °F 35.6 °F 76% 29.44 in 6.2 mi West 23.0 mph 34.5 mph N/A   Mostly Cloudy
8:50 PM 44.6 °F 36.1 °F 33.8 °F 66% 29.44 in 6.2 mi West 21.9 mph - N/A   Mostly Cloudy
9:00 PM 44 °F - 34 °F 59% 29.45 in 14 mi West 22.4 mph - - Rain Light Rain
9:20 PM 42.8 °F 33.5 °F 33.8 °F 70% 29.44 in 6.2 mi West 23.0 mph 38.0 mph N/A   Mostly Cloudy
9:50 PM 42.8 °F 34.3 °F 35.6 °F 76% 29.47 in 6.2 mi West 19.6 mph - N/A   Mostly Cloudy
10:20 PM 42.8 °F 35.4 °F 33.8 °F 70% 29.47 in 6.2 mi West 15.0 mph - N/A   Mostly Cloudy
10:50 PM 41.0 °F 32.8 °F 35.6 °F 81% 29.47 in 6.2 mi West 16.1 mph - N/A   Mostly Cloudy
11:00 PM 41 °F - 36 °F 77% 29.47 in 16 mi West 15.7 mph - - Rain Light Rain
11:20 PM 41.0 °F 33.1 °F 35.6 °F 81% 29.47 in 6.2 mi West 15.0 mph - N/A   Scattered Clouds
11:50 PM 41.0 °F 33.1 °F 35.6 °F 81% 29.44 in - West 15.0 mph - N/A   Clear